{"data":{"norad_id":64871,"intl_designator":"2025-154C","name":"ATHENA EPIC","alt_names":[],"object_type":"PAYLOAD","status":"ACTIVE","operator":null,"country":"US","launch_date":"2025-07-23","launch_site_code":"AFWTR","launch_vehicle":null,"mission":null,"orbit_class":"UNKNOWN","rcs_meters":null,"size_class":null,"mass_kg":null,"dimensions":null,"purposes":[],"wikipedia_slug":null,"has_3d_model":false,"image_url":null,"decayed_at":null,"tle_current":{"epoch":"2026-05-25T03:55:59.536992Z","epoch_age_seconds":71142,"freshness":"FRESH","line1":"1 64871U 25154C   26145.16388353  .00001172  00000+0  11511-3 0  9990","line2":"2 64871  97.6683 209.5115 0005803 334.1557  25.9373 14.94019354 45574","mean_motion":14.94019354,"eccentricity":0.0005803,"inclination_deg":97.6683,"raan_deg":209.5115,"arg_perigee_deg":334.1557,"mean_anomaly_deg":25.9373,"bstar":0.00011511,"rev_number":4557,"period_min":96.384293559828,"perigee_km":581.37729801609,"apogee_km":589.45920023823,"semimajor_km":6963.5552491272,"source":"CELESTRAK","updated_at":"2026-05-25T13:38:04.867830Z"}}}